This is the latest recevied weather packets stored in our database for station/object N4AR. If no packets are shown the sender has not sent any weather packets the latest 1 day(s).
| Time | Temp. | Humidity | Pressure | Rain* | Wind** | Luminosity | Snow |
|---|---|---|---|---|---|---|---|
| 1777990028 | 23.33° C | 47% | 1016.4 hPa | 0 mm | 0.45 m/s, 95° | 555 W/m² | - |
| 1777989726 | 23.33° C | 47% | 1016.3 hPa | 0 mm | 0 m/s | 537 W/m² | - |
| 1777989422 | 22.78° C | 48% | 1016.4 hPa | 0 mm | 0 m/s | 520 W/m² | - |
| 1777989118 | 22.78° C | 49% | 1016.3 hPa | 0 mm | 0 m/s | 504 W/m² | - |
| 1777988814 | 22.78° C | 49% | 1016.5 hPa | 0 mm | 0.89 m/s, 107° | 480 W/m² | - |
| 1777988512 | 22.78° C | 48% | 1016.6 hPa | 0 mm | 0.45 m/s, 104° | 479 W/m² | - |
| 1777988208 | 21.67° C | 53% | 1016.4 hPa | 0 mm | 0.45 m/s, 79° | 457 W/m² | - |
| 1777987905 | 21.67° C | 53% | 1016.4 hPa | 0 mm | 0.89 m/s, 125° | 360 W/m² | - |
| 1777987601 | 21.11° C | 53% | 1016.5 hPa | 0 mm | 0.45 m/s, 71° | 416 W/m² | - |
| 1777987299 | 21.11° C | 53% | 1016.7 hPa | 0 mm | 0.45 m/s, 73° | 398 W/m² | - |
| 1777986995 | 20.56° C | 53% | 1016.7 hPa | 0 mm | 0 m/s | 379 W/m² | - |
| 1777986693 | 20.56° C | 55% | 1016.4 hPa | 0 mm | 0.45 m/s, 90° | 360 W/m² | - |
| 1777986391 | 20.56° C | 55% | 1016.6 hPa | 0 mm | 0.45 m/s, 84° | 341 W/m² | - |
| 1777986089 | 20° C | 56% | 1016.5 hPa | 0 mm | 0.45 m/s, 57° | 89 W/m² | - |
| 1777985785 | 20° C | 56% | 1016.7 hPa | 0 mm | 0.89 m/s, 342° | 81 W/m² | - |
| 1777985482 | 19.44° C | 58% | 1016.6 hPa | 0 mm | 0.45 m/s, 74° | 285 W/m² | - |
| 1777985179 | 19.44° C | 58% | 1016.6 hPa | 0 mm | 0.45 m/s, 140° | 268 W/m² | - |
| 1777984875 | 19.44° C | 58% | 1016.4 hPa | 0 mm | 0.89 m/s, 24° | 253 W/m² | - |
| 1777984571 | 18.89° C | 60% | 1016.2 hPa | 0 mm | 0.45 m/s, 83° | 234 W/m² | - |
| 1777984268 | 18.33° C | 61% | 1016.7 hPa | 0 mm | 0.45 m/s, 37° | 218 W/m² | - |
| 1777983965 | 17.78° C | 63% | 1016.4 hPa | 0 mm | 0.45 m/s, 75° | 203 W/m² | - |
| 1777983662 | 17.78° C | 64% | 1016.4 hPa | 0 mm | 0.45 m/s, 63° | 73 W/m² | - |
| 1777983358 | 17.22° C | 65% | 1016.2 hPa | 0 mm | 0.45 m/s, 90° | 77 W/m² | - |
| 1777983055 | 17.22° C | 66% | 1016.3 hPa | 0 mm | 0.45 m/s, 61° | 42 W/m² | - |
| 1777982752 | 16.67° C | 66% | 1016.4 hPa | 0 mm | 0.89 m/s, 60° | 73 W/m² | - |
* Rain latest hour (hover to see other rain measurements)
** Current wind speed in m/s (hover to see current wind gust speed)